Theta_e
293 286 283 286 288 288 287 285 285 289 292 290 290 290 293 296 295 292 295 295 296 296 298 298 300 303 305 315 328 333 331 331 330 330 329 321 324 321 321 329 331 330 328 323
288 282 288 290 289 288 287 285 284 288 290 289 289 289 293 292 292 293 293 293 294 295 297 296 297 299 300 302 310 325 331 331 331 330 328 327 326 319 321 319 321 320 316 311
282 284 288 286 283 284 285 282 281 282 287 290 288 285 289 291 292 292 293 294 295 295 295 294 295 297 299 299 301 305 322 330 332 331 327 317 312 308 306 308 309 307 309 309
283 287 284 282 278 281 281 283 281 281 282 279 288 277 286 288 287 289 290 292 293 295 296 296 295 296 297 298 300 302 304 324 330 331 323 315 316 314 314 313 312 309 307 304
280 283 280 279 277 281 281 281 279 281 282 282 283 280 282 285 281 284 287 290 292 294 295 296 296 297 297 298 300 301 305 308 328 329 323 320 320 324 320 316 312 307 303 302
280 285 280 279 280 282 282 282 282 285 283 277 278 279 275 278 280 283 286 288 289 289 291 292 294 295 297 298 299 299 302 308 316 327 323 320 320 320 312 311 308 302 305 301
277 278 281 280 278 281 280 279 274 274 275 273 281 277 274 280 282 283 284 285 287 288 288 289 290 292 293 296 298 297 298 301 309 322 319 319 319 318 314 310 308 305 302 299
271 272 275 280 277 275 276 277 273 266 269 271 277 272 276 281 283 285 285 285 286 287 287 287 288 290 291 293 296 297 297 298 303 308 316 318 316 313 312 311 309 307 303 302
270 270 276 278 279 279 275 273 278 272 272 270 275 278 280 281 281 281 282 283 283 285 287 287 288 289 290 291 292 296 296 296 298 302 307 312 314 309 309 308 308 306 305 302
271 268 274 276 279 280 277 278 272 273 265 264 271 273 276 276 277 279 279 281 283 284 285 287 288 288 289 290 291 294 296 295 297 298 301 305 306 308 307 306 303 301 302 299
275 270 271 275 272 272 273 271 271 271 270 266 264 270 278 276 278 278 279 281 283 283 284 285 287 289 289 290 290 291 293 295 295 295 297 300 303 303 302 301 300 299 297 297
275 272 268 270 275 276 275 270 271 267 264 268 267 267 279 280 280 279 279 281 282 284 284 285 286 287 288 289 289 289 290 293 294 294 296 297 298 299 299 298 297 297 295 295
275 270 266 268 272 274 270 272 273 272 269 265 264 268 279 279 279 280 279 281 282 283 284 284 285 285 286 286 288 288 290 291 294 293 293 294 295 296 296 296 296 295 294 293
278 272 268 266 269 271 269 271 272 269 265 267 268 269 274 276 277 279 280 282 282 282 283 283 284 285 286 286 287 288 289 291 292 293 292 292 292 293 294 294 294 293 293 292
277 269 270 271 272 272 270 270 271 269 269 266 269 269 273 276 278 279 281 280 280 281 282 282 283 285 285 285 286 287 289 290 291 291 292 291 291 291 291 291 291 291 291 290
275 269 267 266 270 270 268 270 271 271 271 271 271 271 277 279 280 279 280 279 279 280 281 283 283 284 284 285 286 286 287 288 291 290 290 291 290 290 290 290 290 289 289 289
273 271 267 264 264 263 263 267 269 271 273 272 269 274 277 277 277 278 281 279 279 281 282 282 282 284 285 286 286 286 287 289 289 290 289 290 290 290 289 289 289 288 288 288
273 271 269 265 263 259 270 273 273 272 273 275 274 275 277 277 278 280 282 280 280 281 282 282 283 284 285 286 286 286 287 287 287 287 288 287 289 288 288 288 288 288 288 288
275 272 267 264 262 266 269 272 272 271 271 276 275 276 277 278 278 278 281 282 281 282 282 283 284 284 284 284 285 285 285 286 285 285 285 286 285 287 286 286 286 287 287 285
271 273 269 260 261 260 270 273 275 275 266 276 276 276 276 277 271 275 281 282 282 282 281 280 282 283 283 282 284 283 283 284 284 284 285 285 286 285 286 286 286 287 287 285
266 267 265 266 264 267 273 275 275 265 268 276 277 277 276 275 277 279 281 281 283 282 280 282 281 280 280 281 282 281 282 282 284 284 284 284 286 285 285 286 286 286 286 285
266 264 263 263 262 260 276 272 269 275 277 277 278 278 277 278 279 280 280 280 281 281 281 280 279 278 280 282 281 279 280 283 282 282 282 283 285 286 285 285 286 286 286 285
266 271 269 269 269 276 275 276 279 279 277 278 278 279 279 278 278 279 280 280 281 281 281 281 278 278 279 280 280 279 278 279 280 280 280 282 283 285 285 285 285 285 285 286
272 275 271 271 274 275 277 279 279 280 279 280 281 280 280 279 279 279 280 280 280 281 280 279 278 276 276 277 276 275 276 278 277 277 278 280 282 284 286 285 285 285 285 285
275 273 272 272 275 277 278 279 279 280 281 280 280 280 279 280 279 280 279 280 280 279 278 276 275 275 274 274 273 274 275 275 274 275 277 279 281 283 285 285 285 285 286 287
277 274 271 271 277 277 277 280 281 280 279 280 280 279 280 280 279 280 279 279 277 275 273 272 272 271 270 270 270 272 271 270 270 272 275 277 278 280 282 285 285 287 288 288
Wind_Speed
10 14 13 11 10 5 4 7 11 11 8 17 11 17 19 20 16 19 18 20 20 20 21 20 21 21 16 15 18 17 16 16 11 11 11 6 9 6 6 8 12 13 11 12
5 16 12 7 10 6 7 7 9 12 17 13 15 17 14 21 19 19 21 22 23 23 23 21 22 20 20 19 17 19 18 17 15 12 9 7 9 5 7 6 9 11 12 10
13 9 7 9 17 14 6 11 12 12 16 12 13 4 10 10 19 19 22 20 21 23 24 25 24 23 21 20 19 19 19 18 16 17 10 2 5 4 3 6 7 8 11 10
8 9 9 11 13 12 9 15 15 15 12 8 10 5 9 14 18 22 22 23 24 25 24 23 23 23 23 20 19 20 20 19 16 16 13 16 12 11 10 10 9 10 13 11
5 7 11 9 11 9 6 21 16 17 11 8 7 4 9 15 21 25 24 25 25 24 25 25 25 23 22 22 19 18 19 19 18 15 15 14 15 11 7 7 13 10 9 12
5 2 5 10 13 5 19 12 4 3 3 4 2 6 13 10 15 20 22 24 24 24 24 23 23 24 22 20 20 19 19 18 17 11 16 18 18 13 9 11 10 9 9 8
5 7 3 13 10 3 18 10 4 2 1 4 1 7 5 7 12 14 16 19 20 20 22 24 25 23 24 25 24 19 19 18 17 14 10 13 16 15 17 15 12 13 10 9
8 0 11 12 9 8 9 7 4 6 5 11 13 7 6 6 11 13 14 16 19 21 20 23 24 23 23 24 24 23 21 18 16 14 10 11 12 7 10 13 11 10 11 11
7 2 3 6 6 9 5 5 5 4 3 5 5 5 8 7 15 19 21 20 20 21 23 22 23 21 21 22 23 22 22 20 16 15 11 10 10 10 11 12 12 11 11 9
2 7 3 5 3 8 6 7 1 1 5 6 5 11 8 11 17 20 21 20 19 19 20 20 19 20 19 19 19 21 20 20 18 14 12 7 4 8 8 10 12 13 11 14
2 1 2 4 5 4 4 4 4 3 3 4 7 4 3 2 11 19 20 18 17 17 18 17 18 18 18 17 19 20 20 20 18 15 11 10 4 4 6 8 10 12 13 13
4 1 5 4 11 5 4 3 3 2 2 5 7 10 10 9 20 23 18 18 16 15 15 17 16 17 17 18 19 19 20 20 18 15 11 8 6 1 5 6 9 11 13 13
0 1 5 3 4 2 4 5 8 6 3 14 7 7 10 23 22 20 18 17 16 18 17 17 18 16 17 17 18 18 18 19 17 15 11 8 7 6 3 5 7 10 12 12
6 5 7 7 10 6 13 14 13 6 7 8 17 24 21 20 19 17 14 15 15 17 16 16 17 17 17 17 16 17 17 15 17 14 11 7 7 6 4 1 5 7 10 13
4 6 9 14 18 17 21 25 19 19 20 15 25 23 22 20 19 17 15 14 15 15 16 18 17 16 17 17 17 17 16 17 16 15 11 8 4 4 3 2 4 6 7 8
5 7 3 6 16 18 21 23 21 24 23 25 25 29 22 20 14 18 17 12 14 14 16 18 18 17 16 17 16 17 17 17 16 14 14 8 5 1 1 1 5 7 8 7
4 4 3 8 5 9 13 14 20 17 16 14 19 18 18 17 18 17 11 12 14 12 14 16 17 14 13 14 16 15 16 15 16 14 14 12 6 3 3 4 3 4 8 7
9 5 3 9 4 8 3 8 10 11 16 18 21 20 16 17 14 16 14 14 15 12 14 16 13 14 13 14 14 14 13 14 13 12 14 12 10 5 3 4 7 6 4 7
14 9 5 5 6 13 17 10 14 14 18 14 16 16 15 12 16 20 13 13 16 11 13 12 12 12 12 11 13 13 11 10 11 11 13 12 10 8 4 4 4 5 6 6
4 10 8 4 7 10 7 2 1 4 17 7 10 8 13 17 14 15 16 15 17 12 9 11 12 12 12 10 10 10 11 10 10 12 13 12 10 9 7 6 6 5 6 5
4 3 14 12 12 12 9 13 1 9 7 5 0 12 19 17 15 20 19 19 16 12 11 10 10 10 11 8 8 9 10 9 11 12 12 12 11 9 8 7 5 6 8 8
10 7 6 5 6 17 9 4 10 11 5 8 17 20 20 19 19 17 19 18 18 15 13 10 8 9 9 8 8 11 11 10 11 11 12 12 10 8 6 7 8 7 8 9
7 12 6 12 10 10 10 13 12 10 16 20 20 19 20 19 18 19 19 18 16 15 10 7 5 8 9 8 8 12 11 12 12 12 12 11 12 9 7 7 7 6 7 7
9 12 11 9 23 25 25 24 22 23 22 18 19 19 17 21 19 19 16 14 13 12 9 5 10 10 11 9 9 9 11 11 11 12 12 12 11 11 7 5 5 6 7 7
11 8 10 17 27 21 24 21 22 21 19 16 17 17 19 19 18 17 14 13 11 9 9 8 10 11 12 13 12 11 11 12 12 11 11 11 9 10 9 7 7 7 8 10
13 22 12 16 25 16 23 17 16 17 17 17 17 17 16 15 15 15 12 9 8 8 8 9 9 10 11 12 11 11 9 11 11 13 10 10 9 8 8 8 6 15 15 17
Wind_Direction
38 60 26 11 13 336 319 310 317 326 341 336 313 310 308 301 13 29 12 5 5 2 346 352 354 345 323 278 255 232 212 211 203 204 198 177 187 186 189 212 205 199 195 189
83 41 14 71 30 36 50 20 353 311 324 322 320 317 317 65 50 35 22 14 8 0 359 356 352 349 347 330 293 257 236 213 203 207 198 197 190 191 192 184 192 190 183 171
67 13 22 36 31 11 57 25 340 307 316 289 334 308 28 59 47 33 25 18 14 8 1 357 354 351 347 341 329 305 262 235 218 205 187 132 102 100 136 179 172 177 172 169
61 17 24 33 31 358 323 351 320 303 319 315 9 297 45 359 21 18 12 9 7 5 4 2 356 355 349 342 333 321 293 256 228 208 189 184 197 189 199 185 187 177 172 167
51 13 18 19 357 337 326 312 286 294 295 317 21 262 3 31 1 1 3 3 0 360 358 356 355 350 349 346 342 334 318 285 246 215 203 202 215 213 188 183 171 179 164 162
42 23 37 337 327 350 329 308 307 171 200 230 57 337 53 15 354 350 357 0 358 356 350 352 352 348 345 347 348 343 339 319 285 224 211 211 211 201 173 176 185 174 177 176
337 52 35 3 341 16 360 2 348 20 338 327 304 330 46 34 22 14 4 359 359 354 354 353 355 352 348 345 347 346 342 334 320 271 225 221 220 200 193 185 185 174 187 187
8 1 12 2 31 317 339 347 24 312 312 306 314 259 99 63 22 15 11 1 358 356 1 360 356 354 351 348 343 345 343 337 329 310 263 234 230 205 204 191 185 193 190 180
349 303 329 20 5 355 350 34 337 276 238 266 240 131 194 32 18 9 3 359 360 353 357 355 357 356 354 352 348 343 342 338 337 323 291 266 228 194 197 192 187 182 183 179
62 290 40 330 322 42 29 355 206 41 296 287 265 291 263 16 8 2 359 356 347 349 347 345 349 354 353 352 351 348 345 341 335 335 315 276 228 211 187 179 178 175 172 167
90 330 328 300 37 358 21 32 20 295 270 286 301 264 133 343 355 353 347 344 339 340 343 347 343 344 345 350 356 354 350 345 341 336 334 315 281 186 176 182 178 171 157 165
32 301 285 302 318 273 323 43 44 308 298 267 278 274 283 310 328 329 327 330 330 329 336 340 346 343 343 347 352 357 354 346 343 334 336 333 328 279 178 176 169 161 161 161
62 243 301 189 122 147 272 296 300 307 262 246 260 255 328 319 313 316 316 321 324 323 332 339 343 346 343 345 343 349 352 353 341 335 338 336 325 311 235 172 171 171 163 159
189 223 228 264 298 308 288 277 276 235 253 272 245 282 296 303 319 325 308 311 318 323 326 335 338 339 340 342 342 342 342 344 349 338 329 348 343 332 328 357 162 165 166 157
200 251 251 251 270 279 278 278 271 251 243 254 278 287 285 293 305 307 304 310 323 323 327 335 335 333 336 337 339 341 332 339 350 343 332 328 345 11 356 101 125 131 141 139
185 266 325 271 267 275 281 273 265 258 259 257 260 269 277 278 296 306 294 303 317 319 327 325 325 328 331 334 334 334 334 334 339 349 333 321 309 8 105 156 146 125 126 140
228 253 265 286 335 310 273 256 249 246 247 250 251 274 306 294 306 311 306 294 306 310 316 317 316 320 320 326 330 329 329 329 333 340 350 325 307 251 192 141 126 141 147 143
237 211 220 285 309 257 274 305 274 252 254 266 273 282 288 292 306 308 290 291 301 307 302 307 307 310 311 313 320 325 328 325 326 329 335 341 315 297 246 174 158 140 138 143
234 229 232 253 232 296 293 262 241 243 272 279 273 281 293 311 313 294 299 295 300 297 287 292 293 292 297 297 314 318 317 322 322 331 328 326 320 293 265 221 168 143 150 144
196 228 211 154 250 267 287 251 134 302 279 243 239 262 311 314 300 296 316 313 305 290 268 280 290 294 299 297 309 312 314 320 323 326 321 317 308 295 252 241 200 169 168 155
152 195 221 224 243 261 275 249 20 243 268 159 266 309 307 296 287 296 300 298 299 292 284 285 279 282 290 300 305 308 309 309 320 319 313 312 308 290 271 246 218 192 177 169
182 192 193 225 242 263 223 126 212 238 218 279 307 309 297 292 291 291 294 294 300 298 296 284 283 286 294 313 320 310 308 318 317 312 309 306 304 290 263 235 212 203 189 175
243 211 209 214 226 253 189 239 244 262 281 293 297 296 290 288 286 288 294 293 296 295 289 287 286 302 310 318 328 318 317 317 316 314 308 305 302 296 262 232 216 196 190 191
243 223 239 257 254 254 262 264 266 272 278 279 286 283 278 285 286 286 286 288 290 296 306 327 319 308 307 324 329 313 315 317 321 310 309 307 306 307 290 261 234 215 192 197
238 175 231 248 267 276 268 266 268 271 274 274 271 272 274 281 282 281 277 278 284 295 307 314 308 307 313 322 323 321 322 337 322 310 306 306 303 301 298 256 236 225 221 205
229 246 231 248 264 270 277 277 272 270 267 275 277 279 279 276 273 277 275 282 294 301 310 305 308 311 314 319 316 322 344 332 320 313 312 312 304 303 294 283 251 228 233 217